Big Rapids, MI

7:11 AM EDT on October 21, 2019 (GMT -0400)
Roben-Hood

Weather History for KRQB - August, 2019

Change the Weather History Date:

Tuesday, August 27, 2019

  Actual Average Record
Temperature  
Mean Temperature 71 °F -  
Max Temperature 77 °F 78 °F 97 °F (1973)
Min Temperature 64 °F 56 °F 34 °F (1986)
Cooling Degree Days 6    
Growing Degree Days 21 (Base 50)    
Moisture  
Dew Point 61 °F    
Average Humidity 76    
Maximum Humidity 96    
Minimum Humidity 46    
Precipitation  
Precipitation 0.20 in - - ()
Sea Level Pressure  
Sea Level Pressure 29.75 in    
Wind  
Wind Speed 9 mph (SW)    
Max Wind Speed 15 mph    
Max Gust Speed 24 mph    
Visibility 9 miles    
Events Rain    
Averages and records for this station are not official NWS values.
T = Trace of Precipitation, MM = Missing Value Source: NWS Daily Summary

Daily Weather History Graph

Daily Weather History Graph

Search for Another Location

Airport or City:

Astronomy

Aug. 27, 2019 Rise Set
Actual Time 6:59 AM EDT 8:26 PM EDT
Civil Twilight 6:29 AM EDT 8:56 PM EDT
Nautical Twilight 5:53 AM EDT 9:32 PM EDT
Astronomical Twilight 5:14 AM EDT 10:10 PM EDT
Moon 3:16 AM EDT (8/27) 6:53 PM EDT (8/27)
Length of Visible Light 14h 26m
Length of Day
13h 26m
Waning Crescent, 11% of the Moon is Illuminated
Aug 27
Waning Crescent
Aug 30
New
Sep 5
First Quarter
Sep 14
Full
Sep 21
Last Quarter

Hourly Weather History & Observations

Time (EDT) Temp. Dew Point Humidity Pressure Visibility Wind Dir Wind Speed Gust Speed Precip Events Conditions
12:15 AM 67.1 °F 65.7 °F 95% 29.68 in 4.0 mi SSE 11.5 mph - 0.01 in Rain Rain
12:16 AM 67.1 °F 65.7 °F 95% 29.68 in 4.0 mi SSE 10.4 mph 17.3 mph 0.02 in Rain Rain
12:35 AM 67.1 °F 66.0 °F 96% 29.67 in 10.0 mi SSE 9.2 mph - 0.04 in Rain Rain
12:36 AM 67.1 °F 66.0 °F 96% 29.67 in 10.0 mi SSE 8.1 mph - 0.04 in Rain Rain
12:59 AM 67.5 °F 66.2 °F 96% 29.67 in 7.0 mi South 6.9 mph - 0.06 in Rain Heavy Rain
1:16 AM 68.0 °F 66.7 °F 96% 29.67 in 10.0 mi South 5.8 mph - 0.01 in   Light Drizzle
1:35 AM 68.4 °F 67.1 °F 96% 29.67 in 10.0 mi South 6.9 mph - 0.03 in Rain Rain
1:36 AM 68.4 °F 67.1 °F 96% 29.67 in 10.0 mi South 6.9 mph - 0.03 in   Drizzle
1:55 AM 68.5 °F 67.3 °F 96% 29.66 in 7.0 mi SSW 9.2 mph - 0.04 in Rain Rain
2:00 AM 68.9 °F 67.5 °F 95% 29.66 in 7.0 mi SSW 8.1 mph - N/A Rain Light Rain
2:17 AM 69.1 °F 68.0 °F 96% 29.66 in 10.0 mi SW 6.9 mph - 0.01 in   Overcast
2:35 AM 69.8 °F 68.0 °F 94% 29.66 in 10.0 mi WSW 8.1 mph - 0.02 in   Overcast
2:36 AM 69.6 °F 68.0 °F 95% 29.66 in 10.0 mi WSW 9.2 mph - 0.03 in   Overcast
2:55 AM 69.4 °F 67.6 °F 94% 29.67 in 10.0 mi WSW 10.4 mph 16.1 mph 0.03 in   Overcast
3:18 AM 68.9 °F 67.1 °F 94% 29.67 in 10.0 mi West 10.4 mph 18.4 mph N/A   Overcast
3:35 AM 68.4 °F 66.2 °F 93% 29.68 in 10.0 mi West 8.1 mph 11.5 mph 0.01 in   Overcast
3:55 AM 68.4 °F 66.0 °F 92% 29.68 in 10.0 mi West 10.4 mph 17.3 mph 0.02 in   Overcast
4:19 AM 68.0 °F 65.7 °F 92% 29.69 in 10.0 mi WSW 9.2 mph 17.3 mph N/A   Overcast
4:36 AM 67.5 °F 65.5 °F 93% 29.69 in 4.0 mi WSW 6.9 mph - 0.01 in Rain Rain
4:55 AM 67.3 °F 65.5 °F 94% 29.69 in 5.0 mi WSW 10.4 mph - 0.01 in   Light Drizzle
4:56 AM 67.3 °F 65.5 °F 94% 29.69 in 5.0 mi WSW 9.2 mph - 0.01 in   Light Drizzle
5:15 AM 67.1 °F 65.5 °F 95% 29.69 in 5.0 mi WSW 10.4 mph - N/A   Light Drizzle
5:37 AM 66.6 °F 65.1 °F 95% 29.70 in 5.0 mi West 9.2 mph 16.1 mph 0.01 in   Drizzle
5:55 AM 66.4 °F 64.8 °F 95% 29.71 in 10.0 mi WSW 5.8 mph - 0.01 in   Overcast
6:15 AM 66.4 °F 64.8 °F 95% 29.71 in 10.0 mi SW 5.8 mph - 0.01 in   Overcast
6:20 AM 66.4 °F 64.8 °F 95% 29.71 in 10.0 mi SW 3.5 mph - 0.01 in   Overcast
6:37 AM 66.4 °F 64.8 °F 95% 29.71 in 10.0 mi SW 5.8 mph - 0.01 in   Overcast
6:55 AM 66.6 °F 64.8 °F 94% 29.72 in 7.0 mi WSW 6.9 mph - 0.01 in   Overcast
7:15 AM 66.2 °F 64.8 °F 95% 29.72 in 5.0 mi WSW 4.6 mph - N/A   Light Drizzle
7:20 AM 66.2 °F 64.8 °F 95% 29.72 in 7.0 mi SW 5.8 mph - N/A Rain Light Rain
7:37 AM 66.2 °F 64.6 °F 94% 29.73 in 10.0 mi West 4.6 mph - 0.01 in   Light Drizzle
7:55 AM 66.6 °F 64.8 °F 94% 29.73 in 10.0 mi West 5.8 mph - 0.01 in   Overcast
7:56 AM 66.6 °F 64.8 °F 94% 29.73 in 10.0 mi WSW 5.8 mph - 0.01 in   Overcast
8:15 AM 66.4 °F 64.6 °F 94% 29.73 in 10.0 mi WSW 4.6 mph - N/A   Overcast
8:20 AM 66.4 °F 64.6 °F 94% 29.73 in 10.0 mi SW 5.8 mph - N/A   Overcast
8:37 AM 66.7 °F 64.9 °F 94% 29.73 in 10.0 mi SW 4.6 mph - N/A   Mostly Cloudy
8:55 AM 67.6 °F 65.3 °F 92% 29.73 in 10.0 mi WSW 6.9 mph - N/A   Mostly Cloudy
8:56 AM 67.8 °F 65.3 °F 92% 29.73 in 10.0 mi WSW 8.1 mph - N/A   Mostly Cloudy
9:15 AM 68.0 °F 64.8 °F 89% 29.73 in 10.0 mi West 6.9 mph - 0.01 in   Mostly Cloudy
9:16 AM 68.2 °F 64.9 °F 89% 29.73 in 10.0 mi WSW 6.9 mph - 0.01 in   Mostly Cloudy
9:39 AM 69.1 °F 64.4 °F 85% 29.74 in 10.0 mi West 11.5 mph 17.3 mph 0.01 in   Mostly Cloudy
9:56 AM 69.1 °F 64.0 °F 84% 29.74 in 10.0 mi North - - 0.01 in   Mostly Cloudy
10:15 AM 69.4 °F 63.3 °F 81% 29.75 in 10.0 mi West 8.1 mph - N/A   Mostly Cloudy
10:16 AM 69.3 °F 63.1 °F 81% 29.75 in 10.0 mi West 6.9 mph - N/A   Mostly Cloudy
10:35 AM 70.0 °F 62.4 °F 77% 29.76 in 10.0 mi WSW 8.1 mph 16.1 mph N/A   Overcast
10:39 AM 70.0 °F 63.0 °F 78% 29.76 in 10.0 mi West 10.4 mph 16.1 mph N/A   Overcast
10:57 AM 71.1 °F 62.6 °F 75% 29.76 in 10.0 mi North - - N/A   Overcast
11:15 AM 71.6 °F 63.0 °F 74% 29.76 in 10.0 mi WSW 10.4 mph - N/A   Overcast
11:16 AM 71.6 °F 63.1 °F 75% 29.76 in 10.0 mi WSW 10.4 mph - N/A   Overcast
11:35 AM 71.8 °F 63.1 °F 74% 29.76 in 10.0 mi WSW 8.1 mph - N/A   Mostly Cloudy
11:58 AM 72.5 °F 62.4 °F 71% 29.77 in 10.0 mi WSW 10.4 mph 17.3 mph N/A   Mostly Cloudy
12:15 PM 72.5 °F 62.2 °F 70% 29.77 in 10.0 mi WSW 10.4 mph - N/A   Mostly Cloudy
12:16 PM 72.5 °F 62.4 °F 71% 29.77 in 10.0 mi WSW 9.2 mph - N/A   Mostly Cloudy
12:35 PM 73.0 °F 61.7 °F 67% 29.77 in 10.0 mi WSW 12.7 mph 18.4 mph N/A   Scattered Clouds
12:36 PM 73.2 °F 61.7 °F 67% 29.77 in 10.0 mi WSW 11.5 mph 18.4 mph N/A   Scattered Clouds
12:58 PM 74.5 °F 62.2 °F 66% 29.77 in 10.0 mi West 11.5 mph - N/A   Scattered Clouds
1:16 PM 73.8 °F 61.5 °F 65% 29.76 in 10.0 mi WSW 11.5 mph 18.4 mph N/A   Scattered Clouds
1:35 PM 75.2 °F 60.3 °F 60% 29.76 in 10.0 mi WSW 11.5 mph - N/A   Mostly Cloudy
1:36 PM 75.2 °F 60.4 °F 60% 29.76 in 10.0 mi WSW 11.5 mph 16.1 mph N/A   Mostly Cloudy
1:55 PM 75.4 °F 59.4 °F 57% 29.76 in 10.0 mi WSW 11.5 mph 23.0 mph N/A   Scattered Clouds
2:17 PM - - N/A% - - North - - N/A   Unknown
2:35 PM - - N/A% - - North - - N/A   Unknown
2:39 PM - - N/A% - - North - - N/A   Unknown
2:55 PM - - N/A% - - North - - N/A   Unknown
3:15 PM 75.9 °F 55.0 °F 48% 29.77 in - WSW 12.7 mph 18.4 mph N/A   Clear
3:16 PM 75.9 °F 55.2 °F 49% 29.77 in 10.0 mi WSW 13.8 mph 18.4 mph N/A   Clear
3:35 PM 76.6 °F 54.3 °F 46% 29.77 in 10.0 mi West 11.5 mph 16.1 mph N/A   Scattered Clouds
3:40 PM 77.4 °F 55.2 °F 46% 29.77 in 10.0 mi West 9.2 mph 16.1 mph N/A   Scattered Clouds
3:57 PM 75.9 °F 56.7 °F 51% 29.77 in 10.0 mi West 8.1 mph - N/A   Scattered Clouds
4:15 PM 77.2 °F 55.9 °F 48% 29.78 in 10.0 mi West 12.7 mph 24.2 mph N/A   Scattered Clouds
4:16 PM 77.4 °F 55.9 °F 47% 29.78 in 10.0 mi WSW 12.7 mph 24.2 mph N/A   Scattered Clouds
4:35 PM 76.6 °F 55.9 °F 49% 29.77 in 10.0 mi West 15.0 mph 18.4 mph N/A   Scattered Clouds
4:58 PM 76.1 °F 55.4 °F 49% 29.77 in 10.0 mi WSW 15.0 mph 18.4 mph N/A   Clear
5:15 PM 76.3 °F 54.5 °F 47% 29.77 in 10.0 mi West 11.5 mph 20.7 mph N/A   Clear
5:16 PM 76.3 °F 54.9 °F 47% 29.78 in 10.0 mi WSW 12.7 mph 20.7 mph N/A   Clear
5:35 PM 75.2 °F 55.8 °F 51% 29.78 in 10.0 mi West 10.4 mph 18.4 mph N/A   Scattered Clouds
5:36 PM 75.2 °F 55.8 °F 51% 29.78 in 10.0 mi West 11.5 mph 18.4 mph N/A   Scattered Clouds
5:58 PM 74.7 °F 54.5 °F 49% 29.79 in 10.0 mi WSW 12.7 mph 19.6 mph N/A   Clear
6:16 PM 73.9 °F 55.9 °F 53% 29.79 in 10.0 mi WSW 11.5 mph - N/A   Clear
6:35 PM 73.6 °F 54.5 °F 51% 29.79 in 10.0 mi West 10.4 mph - N/A   Clear
6:36 PM 73.6 °F 54.7 °F 51% 29.79 in 10.0 mi WSW 10.4 mph - N/A   Clear
6:55 PM 73.0 °F 55.4 °F 54% 29.79 in 10.0 mi West 11.5 mph 16.1 mph N/A   Clear
7:18 PM 72.1 °F 55.4 °F 56% 29.78 in 10.0 mi SW 5.8 mph - N/A   Clear
7:35 PM 70.7 °F 55.9 °F 59% 29.79 in 10.0 mi SW 3.5 mph - N/A   Scattered Clouds
7:36 PM 70.5 °F 56.1 °F 60% 29.79 in 10.0 mi SW 3.5 mph - N/A   Mostly Cloudy
7:55 PM 69.8 °F 56.5 °F 63% 29.79 in 10.0 mi SSW 5.8 mph - N/A   Mostly Cloudy
7:56 PM 70.0 °F 56.3 °F 62% 29.79 in 10.0 mi SSW 5.8 mph - N/A   Overcast
8:18 PM 69.3 °F 57.2 °F 65% 29.79 in 10.0 mi SSW 4.6 mph - N/A   Overcast
8:36 PM 69.3 °F 57.4 °F 66% 29.79 in 10.0 mi South 5.8 mph - N/A   Overcast
8:55 PM 69.1 °F 57.7 °F 67% 29.80 in 10.0 mi SSW 4.6 mph - N/A   Overcast
9:15 PM 68.9 °F 58.1 °F 68% 29.81 in 10.0 mi SW 9.2 mph - N/A   Overcast
9:20 PM 68.9 °F 58.1 °F 68% 29.80 in 10.0 mi SSW 5.8 mph - N/A   Overcast
9:37 PM 68.2 °F 58.3 °F 71% 29.80 in 10.0 mi SSW 5.8 mph - N/A   Mostly Cloudy
9:55 PM 67.3 °F 58.3 °F 73% 29.81 in 10.0 mi SSW 4.6 mph - N/A   Mostly Cloudy
9:56 PM 67.3 °F 58.1 °F 72% 29.81 in 10.0 mi South 4.6 mph - N/A   Scattered Clouds
10:15 PM 66.4 °F 58.1 °F 75% 29.81 in 10.0 mi South 3.5 mph - N/A   Clear
10:16 PM 66.4 °F 58.1 °F 75% 29.81 in 10.0 mi SSW 3.5 mph - N/A   Clear
10:35 PM 66.6 °F 59.0 °F 77% 29.81 in 10.0 mi SW 6.9 mph - N/A   Scattered Clouds
10:39 PM 66.7 °F 59.2 °F 77% 29.81 in 10.0 mi SW 5.8 mph - N/A   Scattered Clouds
10:57 PM 66.6 °F 59.9 °F 79% 29.82 in 10.0 mi WSW 8.1 mph - N/A   Scattered Clouds
11:15 PM 67.1 °F 59.5 °F 77% 29.82 in 10.0 mi WSW 6.9 mph - N/A   Scattered Clouds
11:35 PM 65.5 °F 59.0 °F 80% 29.82 in 10.0 mi SW 5.8 mph - N/A   Clear
11:39 PM 65.3 °F 59.0 °F 80% 29.82 in 10.0 mi SW 5.8 mph - N/A   Clear
11:58 PM 64.4 °F 59.2 °F 83% 29.81 in 10.0 mi SW 4.6 mph - N/A   Clear